Dryden, TX

5:06 AM CDT on July 27, 2017 (GMT -0500)
Dryden

Weather History for K6R6 - October, 2012

Change the Weather History Date:

Tuesday, October 2, 2012

  Actual Average (KFST) Record (KFST)
Temperature  
Mean Temperature 74 °F -  
Max Temperature 84 °F 81 °F 100 °F (2000)
Min Temperature 64 °F 58 °F 54 °F (2001)
Cooling Degree Days 9    
Growing Degree Days 24 (Base 50)    
Moisture  
Dew Point 51 °F    
Average Humidity 46    
Maximum Humidity 65    
Minimum Humidity 28    
Precipitation  
Precipitation 0.00 in - - ()
Sea Level Pressure  
Sea Level Pressure 29.94 in    
Wind  
Wind Speed 6 mph (NE)    
Max Wind Speed 9 mph    
Max Gust Speed -    
Averages and records for this station are not official NWS values.
T = Trace of Precipitation, MM = Missing Value Source: NWS Daily Summary

Daily Weather History Graph

Daily Weather History Graph

Search for Another Location

Airport or City:

Trip Planner

Search our weather history database for the weather conditions in past years. The results will help you decide how hot, cold, wet, or windy it might be!

Date:

Astronomy

Oct. 02, 2012 Rise Set
Actual Time 7:43 AM CDT 7:32 PM CDT
Civil Twilight 7:19 AM CDT 7:56 PM CDT
Nautical Twilight 6:51 AM CDT 8:23 PM CDT
Astronomical Twilight 6:23 AM CDT 8:51 PM CDT
Moon 9:01 PM CDT (10/2) 9:58 AM CDT (10/2)
Length of Visible Light 12h 37m
Length of Day
11h 49m
Waning Gibbous, 94% of the Moon is Illuminated
Oct 2
Waning Gibbous
Oct 8
Last Quarter
Oct 15
New
Oct 21
First Quarter
Oct 29
Full

Hourly Weather History & Observations

Time (CDT) Temp. Dew Point Humidity Pressure Visibility Wind Dir Wind Speed Gust Speed Precip Events Conditions
12:53 AM 71.1 °F 52.0 °F 51% 29.97 in - North 9.2 mph - N/A   Unknown
1:53 AM 69.1 °F 53.1 °F 57% 29.97 in - North 8.1 mph - N/A   Unknown
2:53 AM 69.1 °F 54.0 °F 58% 29.97 in - North 8.1 mph - N/A   Unknown
3:53 AM 69.1 °F 53.1 °F 57% 29.96 in - NNW 8.1 mph - N/A   Unknown
4:53 AM 68.0 °F 52.0 °F 56% 29.96 in - North 5.8 mph - N/A   Unknown
5:53 AM 64.9 °F 52.0 °F 63% 29.98 in - NNW 8.1 mph - N/A   Unknown
6:53 AM 64.9 °F 52.0 °F 63% 29.99 in - NW 6.9 mph - N/A   Unknown
7:53 AM 64.0 °F 52.0 °F 65% 30.02 in - Calm Calm - N/A   Unknown
8:53 AM 66.9 °F 53.1 °F 61% 30.02 in - Calm Calm - N/A   Unknown
9:53 AM 75.0 °F 50.0 °F 41% 30.02 in - North 3.5 mph - N/A   Unknown
10:53 AM 75.9 °F 48.9 °F 38% 30.02 in - NNE 3.5 mph - N/A   Unknown
11:53 AM 77.0 °F 46.9 °F 34% 30.01 in - Calm Calm - N/A   Unknown
12:53 PM 79.0 °F 46.9 °F 32% 29.99 in - Variable 3.5 mph - N/A   Unknown
1:53 PM 82.0 °F 48.0 °F 30% 29.95 in - Calm Calm - N/A   Unknown
2:53 PM 82.0 °F 46.9 °F 29% 29.91 in - ESE 4.6 mph - N/A   Unknown
3:53 PM 82.9 °F 48.0 °F 29% 29.88 in - East 5.8 mph - N/A   Unknown
4:53 PM 84.0 °F 48.0 °F 28% 29.86 in - Variable 6.9 mph - N/A   Unknown
5:53 PM 84.0 °F 48.9 °F 29% 29.85 in - ESE 5.8 mph - N/A   Unknown
6:53 PM 81.0 °F 50.0 °F 34% 29.85 in - East 9.2 mph - N/A   Unknown
7:53 PM 75.9 °F 52.0 °F 43% 29.86 in - East 5.8 mph - N/A   Unknown
8:53 PM 73.9 °F 52.0 °F 46% 29.87 in - ESE 5.8 mph - N/A   Unknown
9:53 PM 71.1 °F 52.0 °F 51% 29.88 in - ESE 4.6 mph - N/A   Unknown
10:53 PM 71.1 °F 51.1 °F 49% 29.89 in - SE 5.8 mph - N/A   Unknown
11:53 PM 66.9 °F 52.0 °F 59% 29.89 in - ENE 3.5 mph - N/A   Unknown